9A7DI-13 Weather Reports


time (UTC)temp
F
wind
direction
speed
knots
gust
knots
rain 1hr
in
rain 24hr
in
rain mn
in
humidity
%
barometer
mb
20260507210705 56 0.0 0.0 0.00 0.00 0.00 81 1024.0
20260507205705 56 0.0 0.0 0.00 0.00 0.00 81 1023.8
20260507204705 57 0.0 0.0 0.00 0.00 0.00 81 1023.7
20260507203705 57 0.0 0.0 0.00 0.00 0.00 80 1023.7
20260507201705 57 0.0 0.0 0.00 0.00 0.00 82 1023.4
20260507200705 59 0.0 0.0 0.00 0.00 0.00 79 1023.3
20260507195705 59 0.0 0.0 0.00 0.00 0.00 79 1023.3
20260507194705 59 0.0 0.0 0.00 0.00 0.00 77 1023.2
20260507193707 60 0.0 0.0 0.00 0.00 0.00 75 1023.1
20260507192705 60 0.0 0.0 0.00 0.00 0.00 75 1022.9
20260507191705 61 0.0 0.0 0.00 0.00 0.00 74 1022.9
20260507190705 61 0.0 0.0 0.00 0.00 0.00 74 1022.9
20260507185705 61 0.0 0.0 0.00 0.00 0.00 74 1022.8
20260507184705 61 0.0 0.0 0.00 0.00 0.00 72 1022.7
20260507183705 62 0.0 0.0 0.00 0.00 0.00 72 1022.6
20260507182705 62 0.0 0.0 0.00 0.00 0.00 71 1022.5
20260507181705 62 0.0 0.0 0.00 0.00 0.00 70 1022.4
20260507180705 62 0.0 0.0 0.00 0.00 0.00 70 1022.4
20260507175705 63 0.0 0.0 0.00 0.00 0.00 69 1022.2
20260507174705 63 0.0 0.0 0.00 0.00 0.00 70 1022.2
20260507173705 63 0.0 0.0 0.00 0.00 0.00 70 1022.2
20260507172705 63 0.0 0.0 0.00 0.00 0.00 72 1022.0
20260507171706 63 0.0 0.0 0.00 0.00 0.00 74 1022.2
20260507170705 63 0.0 0.0 0.00 0.00 0.00 72 1022.4
20260507165705 63 0.0 0.0 0.00 0.00 0.00 72 1022.3
20260507164706 63 0.0 0.0 0.00 0.00 0.00 72 1022.3
20260507163705 63 0.0 0.0 0.00 0.00 0.00 75 1022.3
20260507162705 63 0.0 0.0 0.00 0.00 0.00 74 1022.4
20260507161705 64 0.0 0.0 0.00 0.00 0.00 75 1022.3
20260507160705 63 0.0 0.0 0.00 0.00 0.00 74 1022.4
20260507155706 64 0.0 0.0 0.00 0.00 0.00 74 1022.4
20260507154706 63 0.0 0.0 0.00 0.00 0.00 74 1022.5
20260507153706 64 0.0 0.0 0.00 0.00 0.00 74 1022.5
20260507152705 64 0.0 0.0 0.00 0.00 0.00 71 1022.7
20260507151705 65 0.0 0.0 0.00 0.00 0.00 70 1022.6
20260507150705 64 0.0 0.0 0.00 0.00 0.00 71 1022.5
20260507145706 64 0.0 0.0 0.00 0.00 0.00 72 1022.5
20260507144706 64 0.0 0.0 0.00 0.00 0.00 70 1022.5
20260507143706 65 0.0 0.0 0.00 0.00 0.00 69 1022.7
20260507142706 65 0.0 0.0 0.00 0.00 0.00 69 1022.7
20260507141706 65 0.0 0.0 0.00 0.00 0.00 69 1022.9
20260507140706 65 0.0 0.0 0.00 0.00 0.00 67 1022.9
20260507135706 65 0.0 0.0 0.00 0.00 0.00 68 1023.0
20260507134706 65 0.0 0.0 0.00 0.00 0.00 67 1023.2
20260507133706 66 0.0 0.0 0.00 0.00 0.00 66 1023.1
20260507132706 66 0.0 0.0 0.00 0.00 0.00 67 1023.2
20260507131706 66 0.0 0.0 0.00 0.00 0.00 67 1023.3
20260507130706 66 0.0 0.0 0.00 0.00 0.00 68 1023.4
20260507125706 66 0.0 0.0 0.00 0.00 0.00 65 1023.5
20260507124706 66 0.0 0.0 0.00 0.00 0.00 67 1023.5
20260507123706 66 0.0 0.0 0.00 0.00 0.00 67 1023.5
20260507122706 65 0.0 0.0 0.00 0.00 0.00 67 1023.4
20260507121706 65 0.0 0.0 0.00 0.00 0.00 72 1023.4
20260507120706 65 0.0 0.0 0.00 0.00 0.00 71 1023.5
20260507115706 65 0.0 0.0 0.00 0.00 0.00 71 1023.6
20260507114706 65 0.0 0.0 0.00 0.00 0.00 71 1023.5
20260507113706 65 0.0 0.0 0.00 0.00 0.00 72 1023.5
20260507112706 64 0.0 0.0 0.00 0.00 0.00 71 1023.6
20260507111706 64 0.0 0.0 0.00 0.00 0.00 73 1023.6
20260507110706 64 0.0 0.0 0.00 0.00 0.00 74 1023.6
20260507105706 64 0.0 0.0 0.00 0.00 0.00 74 1023.6
20260507104706 64 0.0 0.0 0.00 0.00 0.00 74 1023.7
20260507103706 63 0.0 0.0 0.00 0.00 0.00 73 1023.8
20260507102706 63 0.0 0.0 0.00 0.00 0.00 73 1023.8
20260507101706 63 0.0 0.0 0.00 0.00 0.00 71 1023.9
20260507100706 64 0.0 0.0 0.00 0.00 0.00 71 1023.9
20260507095706 64 0.0 0.0 0.00 0.00 0.00 73 1023.9
20260507094706 63 0.0 0.0 0.00 0.00 0.00 72 1023.9
20260507093706 62 0.0 0.0 0.00 0.00 0.00 73 1023.9
20260507092706 62 0.0 0.0 0.00 0.00 0.00 73 1023.9
20260507091707 62 0.0 0.0 0.00 0.00 0.00 74 1023.8
20260507090706 62 0.0 0.0 0.00 0.00 0.00 77 1023.7
20260507085706 62 0.0 0.0 0.00 0.00 0.00 77 1023.5
20260507084706 61 0.0 0.0 0.00 0.00 0.00 78 1023.4
20260507083706 61 0.0 0.0 0.00 0.00 0.00 79 1023.3
20260507082706 61 0.0 0.0 0.00 0.00 0.00 76 1023.3
20260507081706 60 0.0 0.0 0.00 0.00 0.00 76 1023.2
20260507080706 60 0.0 0.0 0.00 0.00 0.00 84 1023.0
20260507075706 60 0.0 0.0 0.00 0.00 0.00 84 1022.9
20260507074706 59 0.0 0.0 0.00 0.00 0.00 84 1022.8
20260507073706 59 0.0 0.0 0.00 0.00 0.00 85 1022.7
20260507072706 59 0.0 0.0 0.00 0.00 0.00 82 1022.7
20260507071706 59 0.0 0.0 0.00 0.00 0.00 82 1022.6
20260507070706 60 0.0 0.0 0.00 0.00 0.00 82 1022.7
20260507065706 60 0.0 0.0 0.00 0.00 0.00 84 1022.8
20260507064706 59 0.0 0.0 0.00 0.00 0.00 86 1022.9
20260507063706 58 0.0 0.0 0.00 0.00 0.00 86 1022.7
20260507062706 58 0.0 0.0 0.00 0.00 0.00 87 1022.7
20260507061706 59 0.0 0.0 0.00 0.00 0.00 84 1022.8
20260507060706 59 0.0 0.0 0.00 0.00 0.00 82 1022.4
20260507055706 59 0.0 0.0 0.00 0.00 0.00 83 1022.2
20260507054706 59 0.0 0.0 0.00 0.00 0.00 82 1022.1
20260507053707 58 0.0 0.0 0.00 0.00 0.00 83 1022.2
20260507052706 58 0.0 0.0 0.00 0.00 0.00 83 1022.2
20260507051706 58 0.0 0.0 0.00 0.00 0.00 85 1022.3
20260507050706 58 0.0 0.0 0.00 0.00 0.00 84 1022.2
20260507045706 57 0.0 0.0 0.00 0.00 0.00 84 1022.2
20260507044706 57 0.0 0.0 0.00 0.00 0.00 84 1022.0
20260507043706 57 0.0 0.0 0.00 0.00 0.00 83 1021.8
20260507042706 57 0.0 0.0 0.00 0.00 0.00 84 1021.8
20260507041706 57 0.0 0.0 0.00 0.00 0.00 85 1021.6
20260507040706 57 0.0 0.0 0.00 0.00 0.00 86 1021.3
20260507035706 57 0.0 0.0 0.00 0.00 0.00 84 1021.2
20260507034706 57 0.0 0.0 0.00 0.00 0.00 84 1021.2
20260507033706 57 0.0 0.0 0.00 0.00 0.00 84 1021.2
20260507032707 57 0.0 0.0 0.00 0.00 0.00 85 1021.1
20260507031706 57 0.0 0.0 0.00 0.00 0.00 86 1021.0
20260507030706 56 0.0 0.0 0.00 0.00 0.00 86 1020.9
20260507025706 56 0.0 0.0 0.00 0.00 0.00 84 1021.0
20260507024706 56 0.0 0.0 0.00 0.00 0.00 84 1021.0
20260507023706 56 0.0 0.0 0.00 0.00 0.00 83 1020.9
20260507022706 56 0.0 0.0 0.00 0.00 0.00 83 1020.9
20260507021706 56 0.0 0.0 0.00 0.00 0.00 83 1020.8
20260507020706 56 0.0 0.0 0.00 0.00 0.00 83 1020.8
20260507015707 57 0.0 0.0 0.00 0.00 0.00 82 1020.8
20260507014706 57 0.0 0.0 0.00 0.00 0.00 82 1020.9
20260507013706 57 0.0 0.0 0.00 0.00 0.00 83 1020.9
20260507012706 57 0.0 0.0 0.00 0.00 0.00 82 1020.7
20260507011706 57 0.0 0.0 0.00 0.00 0.00 81 1020.8
20260507010706 57 0.0 0.0 0.00 0.00 0.00 81 1020.7
20260507005706 58 0.0 0.0 0.00 0.00 0.00 81 1020.5
20260507004706 58 0.0 0.0 0.00 0.00 0.00 81 1020.4
20260507003706 58 0.0 0.0 0.00 0.00 0.00 81 1020.5
20260507002706 58 0.0 0.0 0.00 0.00 0.00 81 1020.4
20260507001706 58 0.0 0.0 0.00 0.00 0.00 81 1020.4
20260507000706 59 0.0 0.0 0.00 0.00 0.00 81 1020.4
20260506235707 60 0.0 0.0 0.00 0.00 0.00 81 1020.5
20260506234707 60 0.0 0.0 0.00 0.00 0.00 80 1020.6
20260506233707 60 0.0 0.0 0.00 0.00 0.00 80 1020.5
20260506232707 61 0.0 0.0 0.00 0.00 0.00 81 1020.4
20260506231707 61 0.0 0.0 0.00 0.00 0.00 81 1020.6
20260506230707 61 0.0 0.0 0.00 0.00 0.00 81 1020.6
20260506225707 62 0.0 0.0 0.00 0.00 0.00 80 1020.7
20260506224707 62 0.0 0.0 0.00 0.00 0.00 80 1020.7
20260506223707 62 0.0 0.0 0.00 0.00 0.00 81 1020.6
20260506222707 62 0.0 0.0 0.00 0.00 0.00 80 1020.5
20260506221707 62 0.0 0.0 0.00 0.00 0.00 79 1020.5
20260506220707 62 0.0 0.0 0.00 0.00 0.00 79 1020.5
20260506215707 62 0.0 0.0 0.00 0.00 0.00 78 1020.6
20260506214707 63 0.0 0.0 0.00 0.00 0.00 78 1020.5
20260506213707 62 0.0 0.0 0.00 0.00 0.00 80 1020.5
20260506212707 62 0.0 0.0 0.00 0.00 0.00 82 1020.6
20260506211707 62 0.0 0.0 0.00 0.00 0.00 82 1020.8